User: anonymous   Login
Location: Unspecified
(0.0000°N, 0.0000°E)
Time: 07:07:51
(UTC+02:00)
Language:

Gbstr 26 Del rocket - Orbit

View from above orbital plane
View from above orbital plane
View from above satellite
View from above satellite

Ground track
Ground track

The orbit data is extracted from the following two-line orbital elements,

1 25876U 99041E   16176.48549484 -.00000124  00000-0  21142-4 0  9990
2 25876  51.7645 287.8685 0533325  65.7334 299.8351 14.03833090864377
Epoch (UTC): 24 June 2016 11:39:06
Eccentricity: 0.0533325
inclination: 51.7645°
perigee height: 493 km
apogee height: 1267 km
right ascension of ascending node: 287.8685°
argument of perigee: 65.7334°
revolutions per day: 14.03833090
mean anomaly at epoch: 299.8351°
orbit number at epoch: 86437

The dashed part of the orbit path shows where the satellite is in the earth's shadow,  

DLR